SCP
0 0 0 0 0 0 0 0 0 0 0 0 0 0 0 0 0 0 0 0 0 0 0 0 0 1 0 0 1 1 1 1 1 0 0 0 0 0 0 0 0 0 1
0 0 0 0 0 0 0 0 0 0 0 0 0 0 0 0 0 0 0 0 0 0 0 0 0 0 0 1 1 1 1 0 0 0 0 0 -0 0 0 -0 0 0 1
0 0 0 0 0 0 0 0 0 0 0 0 0 0 0 0 0 0 0 0 0 0 0 0 0 0 0 0 0 1 1 0 0 0 0 0 0 -0 -0 0 -0 0 1
0 0 0 0 0 0 0 0 0 0 0 0 0 0 0 0 0 0 0 0 0 0 0 0 0 0 0 0 0 0 0 0 0 0 0 0 0 -0 -0 -0 -0 0 1
0 0 0 0 0 0 0 0 0 0 0 0 0 0 0 0 0 0 0 0 0 0 0 0 0 0 0 0 0 0 0 0 0 0 0 0 0 0 0 0 0 1 1
0 0 0 0 0 0 0 0 0 0 0 0 0 0 0 0 0 0 0 0 0 0 0 0 0 0 0 0 0 0 0 0 0 0 0 0 0 0 0 0 1 1 0
0 0 0 0 0 0 0 0 0 0 0 0 0 0 0 0 0 0 0 0 0 0 0 0 0 0 0 0 0 0 0 0 0 0 0 0 0 0 0 0 1 0 0
0 0 0 0 0 0 0 0 0 0 0 0 0 0 0 0 0 0 0 0 0 0 0 0 0 0 0 0 0 0 0 0 0 -0 -0 -0 0 0 0 0 0 0 0
0 0 0 0 0 0 0 0 0 0 0 0 0 0 0 0 0 0 0 0 0 0 0 0 0 0 0 0 0 0 0 0 0 0 0 0 0 0 0 0 0 0 0
0 0 0 0 0 0 0 0 0 0 0 0 0 0 0 0 0 0 0 0 0 0 0 0 0 -0 0 0 0 0 0 0 -0 0 0 0 0 0 0 0 0 0 0
0 0 0 0 0 0 0 0 0 0 0 0 0 0 0 0 0 0 0 0 0 0 0 0 0 -0 -0 0 0 0 0 0 0 0 0 0 0 0 0 0 0 0 0
0 0 0 0 0 0 0 0 0 0 0 0 0 0 0 0 0 0 0 0 0 0 -0 0 0 -0 0 0 0 0 0 0 0 0 0 0 0 0 0 0 0 0 0
0 0 0 0 0 0 0 0 0 0 0 0 0 0 0 0 0 -0 0 0 -0 0 0 -0 0 0 0 -0 -0 -0 -0 -0 0 0 0 0 0 0 0 0 0 0 0
0 0 0 0 0 0 0 0 0 0 0 0 0 0 0 0 -0 -0 0 0 -0 0 -0 0 0 0 0 -0 -0 -0 -0 -0 0 0 0 0 0 0 0 0 0 0 0
-0 0 0 0 0 0 0 0 0 0 0 0 0 0 0 0 -0 -0 0 0 0 0 -0 -0 0 0 0 0 0 0 0 0 0 0 0 0 0 0 0 0 0 0 0
0 0 0 0 0 0 0 0 0 0 0 0 0 0 0 -0 -0 0 0 0 0 -0 -0 -0 0 0 0 0 0 0 0 0 0 0 0 0 0 0 0 0 0 0 0
-0 0 0 0 0 0 0 0 0 0 0 0 -0 0 0 0 0 0 0 0 0 -0 -0 0 0 0 0 0 0 0 0 0 0 0 0 0 0 0 0 0 0 0 0
-0 -0 0 0 0 0 0 0 0 0 0 0 0 0 0 0 0 0 0 0 0 0 0 0 0 0 0 0 0 0 0 0 0 0 0 0 0 0 0 0 0 0 0
-0 0 0 0 0 0 0 0 0 0 -0 0 -0 0 0 0 0 0 -0 0 0 0 0 0 0 0 0 0 0 0 0 0 0 0 0 0 0 0 0 0 0 0 0
-0 0 0 0 0 0 0 0 0 0 -0 0 0 0 0 0 0 0 0 0 0 0 0 0 0 0 0 0 0 0 0 0 0 0 0 0 0 0 0 0 0 0 0
-0 0 0 0 0 0 0 0 0 0 0 0 0 0 0 0 0 0 0 0 0 0 0 0 0 0 0 0 0 0 0 0 0 0 0 0 0 0 0 0 0 0 0
0 0 0 0 0 0 0 0 0 0 -0 -0 0 0 0 0 0 0 0 0 0 0 0 0 0 0 0 0 0 0 0 0 0 0 0 0 0 -0 0 0 0 0 0
-0 0 0 0 0 0 0 0 0 0 -0 -0 -0 0 0 0 0 0 0 0 0 0 0 0 0 0 0 0 0 0 0 0 0 0 0 0 0 0 0 0 0 0 0
-0 -0 0 0 0 0 0 0 0 0 -0 -0 -0 0 0 0 0 0 0 0 0 0 0 0 0 0 0 0 0 0 0 0 0 0 0 0 0 -0 0 0 0 0 0
-0 -0 0 0 0 0 0 0 0 0 0 0 0 0 0 0 0 0 0 0 0 0 0 0 0 0 0 0 0 0 0 0 0 0 0 0 0 -0 -0 0 0 0 0
0 0 0 0 0 0 0 0 0 0 0 -0 0 0 0 0 0 0 0 0 0 0 0 0 0 0 0 0 0 0 0 0 0 0 -0 -0 0 0 0 -0 0 0 -0
Wind_Speed_500mb
37 45 52 59 67 72 77 81 83 82 78 74 68 69 71 71 70 71 77 84 85 85 77 74 72 73 64 60 66 70 76 81 86 77 76 67 82 84 80 81 97 95 88
51 58 65 70 74 77 78 77 74 70 64 61 62 66 68 67 67 67 70 72 75 76 72 72 72 65 65 65 62 71 74 76 86 80 82 71 79 95 87 71 60 71 62
60 65 70 73 74 74 73 69 64 59 56 56 55 54 51 49 51 58 60 60 63 68 72 70 71 66 66 61 61 63 71 82 82 88 87 78 70 74 74 70 67 68 54
65 68 71 72 70 65 64 60 55 51 48 45 47 52 50 50 51 52 53 55 53 56 64 69 68 70 70 62 61 62 69 78 82 92 92 87 72 62 49 50 67 48 51
68 71 68 62 58 58 54 52 44 38 42 49 58 58 54 53 52 50 53 56 60 64 64 59 66 73 75 71 62 64 70 76 77 81 78 77 80 65 62 65 56 59 50
63 63 58 51 52 52 51 46 39 47 55 60 61 57 56 58 59 65 61 58 57 57 61 67 73 64 69 69 71 70 68 77 77 77 72 79 79 73 62 81 68 63 49
58 54 48 49 51 49 42 40 46 53 59 61 57 61 71 72 65 63 63 64 59 65 61 56 61 59 60 61 63 64 64 73 85 78 72 78 77 78 72 75 77 83 60
53 47 47 48 50 40 42 48 54 57 54 61 65 75 72 72 70 71 63 63 57 56 59 56 56 51 56 58 55 24 25 45 73 81 78 81 90 89 91 81 82 77 56
46 45 46 48 43 42 48 54 58 59 64 64 61 76 73 76 71 67 64 57 51 49 50 49 47 48 54 46 44 50 53 43 52 59 56 68 68 81 96 77 80 69 47
48 47 47 45 42 45 49 58 68 62 71 69 71 64 68 63 53 51 51 49 49 37 34 44 36 43 36 58 61 49 56 44 54 47 33 35 30 71 70 70 74 63 49
46 46 48 41 42 43 51 63 68 64 72 62 71 64 59 53 52 51 46 39 35 36 37 34 38 39 20 16 22 26 24 10 40 47 45 48 44 52 58 59 58 55 47
45 46 44 39 40 40 52 60 67 62 67 69 67 64 44 51 44 40 20 23 33 35 35 26 22 12 35 42 48 46 35 34 46 40 39 40 48 57 58 54 51 49 41
47 46 45 43 40 42 53 59 63 57 58 67 60 50 52 41 39 42 51 31 37 42 28 25 33 42 22 21 23 27 47 42 43 46 50 48 51 51 51 50 47 44 39
47 45 46 45 39 42 51 57 49 50 53 54 54 49 41 32 47 51 48 25 43 35 10 57 46 21 13 25 30 42 36 36 43 45 47 48 47 46 47 48 49 48 48
46 44 41 39 40 49 56 52 46 38 41 47 49 35 38 43 50 53 28 26 35 20 50 48 34 19 24 31 33 33 33 33 37 38 39 41 37 33 35 39 44 47 51
45 39 38 40 45 49 52 56 34 28 35 34 36 35 37 48 53 51 7 36 34 32 40 42 25 18 31 28 35 37 37 38 42 39 36 30 28 26 36 37 37 40 46
40 38 39 40 43 46 43 44 44 28 33 33 29 32 34 43 47 1 21 30 23 31 43 27 19 25 36 37 33 31 31 29 31 31 27 24 24 22 32 32 34 40 39
39 36 38 38 37 38 40 38 35 29 41 30 29 34 26 35 28 18 38 33 28 38 41 17 22 24 37 34 30 31 30 29 27 29 27 22 20 21 26 25 34 38 33
43 41 40 36 32 32 32 32 34 32 33 28 25 23 11 30 27 6 35 35 39 42 38 16 22 24 28 28 28 26 25 24 23 23 23 18 16 16 18 23 30 31 31
46 40 38 36 35 33 33 38 36 30 26 21 19 13 18 23 34 34 34 38 35 36 24 26 22 24 19 17 21 19 14 13 15 18 19 16 13 12 15 20 27 33 33
52 48 42 39 39 36 38 39 39 36 31 22 19 23 24 21 17 49 44 34 32 36 20 33 32 22 18 21 18 15 13 10 14 17 14 15 5 5 7 14 20 28 28
57 54 50 45 42 37 37 43 45 40 41 37 37 30 30 23 27 36 37 34 26 24 31 34 28 25 23 15 21 19 16 15 19 19 19 13 9 3 5 16 24 32 29
63 61 58 55 48 41 35 35 35 35 39 38 43 43 39 32 15 9 24 24 26 31 32 32 28 20 27 23 21 17 16 17 16 16 11 8 12 14 6 9 19 16 15
58 64 68 62 58 49 41 34 32 28 32 33 34 33 34 29 22 19 16 14 16 17 17 16 17 20 26 20 18 15 11 13 14 16 7 5 12 19 13 2 20 9 13
56 56 61 66 65 59 51 44 39 30 24 23 25 24 21 21 19 17 13 18 8 2 7 11 17 24 22 21 18 16 10 3 4 8 12 15 14 13 14 4 17 12 6
54 56 56 56 60 64 61 55 47 42 34 27 22 19 15 9 5 7 5 6 5 5 11 16 19 22 29 23 25 25 20 16 17 16 19 21 15 12 11 7 9 11 8
Wind_Direction_500mb
292 293 292 293 295 296 296 296 295 292 292 291 291 291 291 289 285 278 270 264 261 261 258 257 257 260 262 267 274 274 264 257 255 257 256 258 245 256 274 253 245 251 235
300 301 302 303 303 302 301 299 297 295 291 291 294 294 294 291 288 283 279 272 264 258 257 255 256 258 261 265 270 277 265 260 250 253 256 255 265 260 272 265 249 231 219
306 306 306 306 305 304 304 302 298 293 291 294 296 297 295 293 293 291 282 277 271 262 256 256 255 255 258 261 266 270 275 261 259 253 254 255 261 266 268 262 232 231 214
309 309 308 307 306 305 304 302 297 291 293 297 296 294 289 287 289 290 284 280 276 272 262 257 258 258 256 258 264 268 275 262 253 253 252 253 253 256 248 238 228 226 207
311 310 308 305 304 303 304 304 298 295 297 297 298 298 292 287 288 286 294 289 283 277 263 256 261 259 257 259 263 269 276 262 253 248 243 242 242 240 235 234 233 228 210
310 309 309 306 304 305 306 302 301 305 303 301 301 296 291 289 285 292 293 294 287 281 279 270 256 260 262 266 270 273 264 254 251 244 242 235 237 230 230 233 234 215 200
309 308 306 309 309 307 305 307 306 305 310 306 300 299 299 300 295 295 291 295 290 278 275 276 263 263 269 270 276 267 256 247 241 248 241 243 239 236 226 220 224 221 200
310 306 307 309 306 308 309 307 310 311 304 307 306 310 304 303 302 300 292 291 288 282 272 268 259 265 266 272 264 241 295 250 242 243 246 246 245 236 232 235 218 195 186
309 305 307 308 305 306 307 315 313 311 311 311 309 311 307 304 295 293 287 288 287 280 270 250 255 267 273 259 246 264 265 263 233 237 255 240 225 231 211 203 186 180 173
311 307 307 304 301 306 316 322 318 313 318 319 318 311 311 308 305 297 288 285 283 272 245 241 252 265 271 255 263 259 254 232 233 222 182 174 198 186 184 184 181 179 170
311 311 308 302 303 317 326 317 316 313 316 318 321 314 317 313 307 301 293 281 255 252 243 243 260 251 256 228 191 199 158 159 202 194 218 204 195 164 164 179 188 191 172
312 315 308 301 311 316 312 318 319 318 317 317 321 325 317 314 313 318 321 253 240 238 238 252 272 250 157 152 118 119 104 95 138 138 121 132 149 158 166 171 173 177 176
316 316 314 307 313 307 319 320 322 324 326 322 323 322 316 327 343 341 325 274 218 225 243 271 140 150 132 173 195 179 164 154 156 153 157 164 171 172 173 173 174 174 174
316 317 316 314 308 310 316 325 325 328 327 332 329 322 320 325 336 337 346 212 202 208 201 144 161 173 330 146 154 157 158 159 163 166 168 173 177 177 176 174 169 166 165
325 320 323 319 317 313 317 321 327 329 327 328 334 327 327 319 327 345 341 196 192 177 153 182 194 199 140 135 136 144 150 162 169 170 162 155 156 157 167 167 166 168 169
336 335 330 328 325 324 324 326 331 337 334 333 335 333 331 320 336 352 174 179 181 176 187 184 181 174 148 139 135 134 130 129 130 139 146 150 153 158 163 170 168 170 171
344 340 336 335 331 333 334 334 329 343 343 340 338 334 328 333 351 185 182 180 178 176 172 159 150 146 132 133 131 129 129 128 136 136 129 134 144 147 161 163 165 162 164
353 347 342 340 339 338 338 346 339 331 340 340 335 340 334 347 3 181 186 185 174 173 176 160 149 137 131 133 132 121 114 119 127 136 125 116 128 146 152 159 169 178 180
2 358 353 350 356 353 355 0 358 352 347 347 341 343 43 10 29 55 174 176 176 166 173 169 156 134 123 126 126 118 109 114 120 128 135 127 120 134 151 165 171 176 188
11 9 5 7 10 10 18 5 357 349 352 1 3 18 55 52 63 117 142 141 147 158 161 163 156 140 125 126 123 113 116 117 119 128 138 139 134 138 155 170 183 186 189
18 18 20 24 27 33 30 31 30 29 26 37 57 66 57 67 83 58 110 123 139 160 168 167 164 150 145 135 119 100 85 101 143 141 140 140 127 125 156 171 183 184 189
26 28 28 29 32 42 46 50 48 52 60 60 54 65 69 99 131 74 69 108 115 118 134 154 159 155 150 132 117 93 77 98 122 126 122 109 63 72 166 169 188 198 205
28 33 36 36 36 43 50 55 58 52 58 62 60 60 64 81 92 55 51 92 109 129 132 142 142 144 148 135 124 97 77 90 120 120 113 78 45 34 24 199 190 188 222
31 32 36 39 38 39 45 45 42 44 42 48 52 59 63 75 66 62 49 82 99 125 155 156 152 147 159 149 140 131 112 94 93 84 87 26 13 15 20 186 201 231 305
29 31 34 36 39 39 37 38 40 35 33 29 32 49 55 63 86 88 86 74 68 135 182 186 178 178 176 184 184 186 182 150 11 10 358 335 313 332 0 322 229 244 340
29 30 31 32 34 38 38 36 32 31 31 26 22 20 31 37 39 70 74 96 196 195 213 213 204 194 205 207 208 220 231 246 273 305 339 334 306 286 323 345 236 222 65
Wind_Speed_850mb
37 45 52 59 67 72 77 81 83 82 78 74 68 69 71 71 70 71 77 84 85 85 77 74 72 73 64 60 66 70 76 81 86 77 76 67 82 84 80 81 97 95 88
51 58 65 70 74 77 78 77 74 70 64 61 62 66 68 67 67 67 70 72 75 76 72 72 72 65 65 65 62 71 74 76 86 80 82 71 79 95 87 71 60 71 62
60 65 70 73 74 74 73 69 64 59 56 56 55 54 51 49 51 58 60 60 63 68 72 70 71 66 66 61 61 63 71 82 82 88 87 78 70 74 74 70 67 68 54
65 68 71 72 70 65 64 60 55 51 48 45 47 52 50 50 51 52 53 55 53 56 64 69 68 70 70 62 61 62 69 78 82 92 92 87 72 62 49 50 67 48 51
68 71 68 62 58 58 54 52 44 38 42 49 58 58 54 53 52 50 53 56 60 64 64 59 66 73 75 71 62 64 70 76 77 81 78 77 80 65 62 65 56 59 50
63 63 58 51 52 52 51 46 39 47 55 60 61 57 56 58 59 65 61 58 57 57 61 67 73 64 69 69 71 70 68 77 77 77 72 79 79 73 62 81 68 63 49
58 54 48 49 51 49 42 40 46 53 59 61 57 61 71 72 65 63 63 64 59 65 61 56 61 59 60 61 63 64 64 73 85 78 72 78 77 78 72 75 77 83 60
53 47 47 48 50 40 42 48 54 57 54 61 65 75 72 72 70 71 63 63 57 56 59 56 56 51 56 58 55 24 25 45 73 81 78 81 90 89 91 81 82 77 56
46 45 46 48 43 42 48 54 58 59 64 64 61 76 73 76 71 67 64 57 51 49 50 49 47 48 54 46 44 50 53 43 52 59 56 68 68 81 96 77 80 69 47
48 47 47 45 42 45 49 58 68 62 71 69 71 64 68 63 53 51 51 49 49 37 34 44 36 43 36 58 61 49 56 44 54 47 33 35 30 71 70 70 74 63 49
46 46 48 41 42 43 51 63 68 64 72 62 71 64 59 53 52 51 46 39 35 36 37 34 38 39 20 16 22 26 24 10 40 47 45 48 44 52 58 59 58 55 47
45 46 44 39 40 40 52 60 67 62 67 69 67 64 44 51 44 40 20 23 33 35 35 26 22 12 35 42 48 46 35 34 46 40 39 40 48 57 58 54 51 49 41
47 46 45 43 40 42 53 59 63 57 58 67 60 50 52 41 39 42 51 31 37 42 28 25 33 42 22 21 23 27 47 42 43 46 50 48 51 51 51 50 47 44 39
47 45 46 45 39 42 51 57 49 50 53 54 54 49 41 32 47 51 48 25 43 35 10 57 46 21 13 25 30 42 36 36 43 45 47 48 47 46 47 48 49 48 48
46 44 41 39 40 49 56 52 46 38 41 47 49 35 38 43 50 53 28 26 35 20 50 48 34 19 24 31 33 33 33 33 37 38 39 41 37 33 35 39 44 47 51
45 39 38 40 45 49 52 56 34 28 35 34 36 35 37 48 53 51 7 36 34 32 40 42 25 18 31 28 35 37 37 38 42 39 36 30 28 26 36 37 37 40 46
40 38 39 40 43 46 43 44 44 28 33 33 29 32 34 43 47 1 21 30 23 31 43 27 19 25 36 37 33 31 31 29 31 31 27 24 24 22 32 32 34 40 39
39 36 38 38 37 38 40 38 35 29 41 30 29 34 26 35 28 18 38 33 28 38 41 17 22 24 37 34 30 31 30 29 27 29 27 22 20 21 26 25 34 38 33
43 41 40 36 32 32 32 32 34 32 33 28 25 23 11 30 27 6 35 35 39 42 38 16 22 24 28 28 28 26 25 24 23 23 23 18 16 16 18 23 30 31 31
46 40 38 36 35 33 33 38 36 30 26 21 19 13 18 23 34 34 34 38 35 36 24 26 22 24 19 17 21 19 14 13 15 18 19 16 13 12 15 20 27 33 33
52 48 42 39 39 36 38 39 39 36 31 22 19 23 24 21 17 49 44 34 32 36 20 33 32 22 18 21 18 15 13 10 14 17 14 15 5 5 7 14 20 28 28
57 54 50 45 42 37 37 43 45 40 41 37 37 30 30 23 27 36 37 34 26 24 31 34 28 25 23 15 21 19 16 15 19 19 19 13 9 3 5 16 24 32 29
63 61 58 55 48 41 35 35 35 35 39 38 43 43 39 32 15 9 24 24 26 31 32 32 28 20 27 23 21 17 16 17 16 16 11 8 12 14 6 9 19 16 15
58 64 68 62 58 49 41 34 32 28 32 33 34 33 34 29 22 19 16 14 16 17 17 16 17 20 26 20 18 15 11 13 14 16 7 5 12 19 13 2 20 9 13
56 56 61 66 65 59 51 44 39 30 24 23 25 24 21 21 19 17 13 18 8 2 7 11 17 24 22 21 18 16 10 3 4 8 12 15 14 13 14 4 17 12 6
54 56 56 56 60 64 61 55 47 42 34 27 22 19 15 9 5 7 5 6 5 5 11 16 19 22 29 23 25 25 20 16 17 16 19 21 15 12 11 7 9 11 8
Wind_Direction_850mb
292 293 292 293 295 296 296 296 295 292 292 291 291 291 291 289 285 278 270 264 261 261 258 257 257 260 262 267 274 274 264 257 255 257 256 258 245 256 274 253 245 251 235
300 301 302 303 303 302 301 299 297 295 291 291 294 294 294 291 288 283 279 272 264 258 257 255 256 258 261 265 270 277 265 260 250 253 256 255 265 260 272 265 249 231 219
306 306 306 306 305 304 304 302 298 293 291 294 296 297 295 293 293 291 282 277 271 262 256 256 255 255 258 261 266 270 275 261 259 253 254 255 261 266 268 262 232 231 214
309 309 308 307 306 305 304 302 297 291 293 297 296 294 289 287 289 290 284 280 276 272 262 257 258 258 256 258 264 268 275 262 253 253 252 253 253 256 248 238 228 226 207
311 310 308 305 304 303 304 304 298 295 297 297 298 298 292 287 288 286 294 289 283 277 263 256 261 259 257 259 263 269 276 262 253 248 243 242 242 240 235 234 233 228 210
310 309 309 306 304 305 306 302 301 305 303 301 301 296 291 289 285 292 293 294 287 281 279 270 256 260 262 266 270 273 264 254 251 244 242 235 237 230 230 233 234 215 200
309 308 306 309 309 307 305 307 306 305 310 306 300 299 299 300 295 295 291 295 290 278 275 276 263 263 269 270 276 267 256 247 241 248 241 243 239 236 226 220 224 221 200
310 306 307 309 306 308 309 307 310 311 304 307 306 310 304 303 302 300 292 291 288 282 272 268 259 265 266 272 264 241 295 250 242 243 246 246 245 236 232 235 218 195 186
309 305 307 308 305 306 307 315 313 311 311 311 309 311 307 304 295 293 287 288 287 280 270 250 255 267 273 259 246 264 265 263 233 237 255 240 225 231 211 203 186 180 173
311 307 307 304 301 306 316 322 318 313 318 319 318 311 311 308 305 297 288 285 283 272 245 241 252 265 271 255 263 259 254 232 233 222 182 174 198 186 184 184 181 179 170
311 311 308 302 303 317 326 317 316 313 316 318 321 314 317 313 307 301 293 281 255 252 243 243 260 251 256 228 191 199 158 159 202 194 218 204 195 164 164 179 188 191 172
312 315 308 301 311 316 312 318 319 318 317 317 321 325 317 314 313 318 321 253 240 238 238 252 272 250 157 152 118 119 104 95 138 138 121 132 149 158 166 171 173 177 176
316 316 314 307 313 307 319 320 322 324 326 322 323 322 316 327 343 341 325 274 218 225 243 271 140 150 132 173 195 179 164 154 156 153 157 164 171 172 173 173 174 174 174
316 317 316 314 308 310 316 325 325 328 327 332 329 322 320 325 336 337 346 212 202 208 201 144 161 173 330 146 154 157 158 159 163 166 168 173 177 177 176 174 169 166 165
325 320 323 319 317 313 317 321 327 329 327 328 334 327 327 319 327 345 341 196 192 177 153 182 194 199 140 135 136 144 150 162 169 170 162 155 156 157 167 167 166 168 169
336 335 330 328 325 324 324 326 331 337 334 333 335 333 331 320 336 352 174 179 181 176 187 184 181 174 148 139 135 134 130 129 130 139 146 150 153 158 163 170 168 170 171
344 340 336 335 331 333 334 334 329 343 343 340 338 334 328 333 351 185 182 180 178 176 172 159 150 146 132 133 131 129 129 128 136 136 129 134 144 147 161 163 165 162 164
353 347 342 340 339 338 338 346 339 331 340 340 335 340 334 347 3 181 186 185 174 173 176 160 149 137 131 133 132 121 114 119 127 136 125 116 128 146 152 159 169 178 180
2 358 353 350 356 353 355 0 358 352 347 347 341 343 43 10 29 55 174 176 176 166 173 169 156 134 123 126 126 118 109 114 120 128 135 127 120 134 151 165 171 176 188
11 9 5 7 10 10 18 5 357 349 352 1 3 18 55 52 63 117 142 141 147 158 161 163 156 140 125 126 123 113 116 117 119 128 138 139 134 138 155 170 183 186 189
18 18 20 24 27 33 30 31 30 29 26 37 57 66 57 67 83 58 110 123 139 160 168 167 164 150 145 135 119 100 85 101 143 141 140 140 127 125 156 171 183 184 189
26 28 28 29 32 42 46 50 48 52 60 60 54 65 69 99 131 74 69 108 115 118 134 154 159 155 150 132 117 93 77 98 122 126 122 109 63 72 166 169 188 198 205
28 33 36 36 36 43 50 55 58 52 58 62 60 60 64 81 92 55 51 92 109 129 132 142 142 144 148 135 124 97 77 90 120 120 113 78 45 34 24 199 190 188 222
31 32 36 39 38 39 45 45 42 44 42 48 52 59 63 75 66 62 49 82 99 125 155 156 152 147 159 149 140 131 112 94 93 84 87 26 13 15 20 186 201 231 305
29 31 34 36 39 39 37 38 40 35 33 29 32 49 55 63 86 88 86 74 68 135 182 186 178 178 176 184 184 186 182 150 11 10 358 335 313 332 0 322 229 244 340
29 30 31 32 34 38 38 36 32 31 31 26 22 20 31 37 39 70 74 96 196 195 213 213 204 194 205 207 208 220 231 246 273 305 339 334 306 286 323 345 236 222 65